This demonstration page uses our WeatherBlox Daily Observations layout. Learn more.

Left ArrowRight Arrow

34.02893, -84.19858

Hourly Observations for March 30, 2016

Temp ( °F °C ) Dew Point ( °F °C ) Humidity (%) Winds ( mph kmh ) Pressure ( in mb ) Visibility ( mi km ) Precip ( " mm )
12:53 am 00:53 Clear 52 11.1 41 5 66 66 E 3 6 30.17 1022 10 16 0.00 0.00
1:53 am 01:53 Clear 54 12.2 41 5 62 62 E 3 6 30.16 1021 10 16 0.00 0.00
2:53 am 02:53 Clear 52 11.1 40 4.4 64 64 Calm 30.18 1022 10 16 0.00 0.00
3:53 am 03:53 Clear 52 11.1 40 4.4 64 64 E 3 6 30.16 1021 10 16 0.00 0.00
4:53 am 04:53 Clear 51 10.6 40 4.4 66 66 Calm 30.17 1022 10 16 0.00 0.00
5:53 am 05:53 Clear 51 10.6 40 4.4 66 66 E 3 6 30.17 1022 10 16 0.00 0.00
6:53 am 06:53 Clear 49 9.4 40 4.4 71 71 VRB 3 6 30.18 1022 10 16 0.00 0.00
7:53 am 07:53 Sunny 49 9.4 40 4.4 71 71 VRB 5 7 30.22 1024 10 16 0.00 0.00
8:53 am 08:53 Sunny 53 11.7 42 5.6 66 66 ENE 3 6 30.24 1024 10 16 0.00 0.00
9:53 am 09:53 Sunny 57 13.9 45 7.2 64 64 ESE 6 9 30.26 1025 10 16 0.00 0.00
10:53 am 10:53 Sunny 63 17.2 43 6.1 48 48 SE 9 15 30.26 1025 10 16 0.00 0.00
11:53 am 11:53 Sunny 65 18.3 42 5.6 43 43 ESE 10 17 30.25 1025 10 16 0.00 0.00
12:53 pm 12:53 Sunny 67 19.4 42 5.6 41 41 SE 8 13 30.23 1024 10 16 0.00 0.00
1:53 pm 13:53 Sunny 69 20.6 40 4.4 35 35 SE 12 19 30.19 1022 10 16 0.00 0.00
2:53 pm 14:53 Sunny 71 21.7 41 5 34 34 SSE 10 17 30.16 1021 10 16 0.00 0.00
3:53 pm 15:53 Sunny 71 21.7 42 5.6 35 35 VRB 6 9 30.13 1020 10 16 0.00 0.00
4:53 pm 16:53 Sunny 72 22.2 41 5 33 33 SE 10 17 30.11 1020 10 16 0.00 0.00
5:53 pm 17:53 Sunny 70 21.1 41 5 35 35 SE 9 15 30.11 1020 10 16 0.00 0.00
6:53 pm 18:53 Sunny 69 20.6 42 5.6 38 38 ESE 7 11 30.10 1019 10 16 0.00 0.00
7:53 pm 19:53 Sunny 67 19.4 42 5.6 41 41 ESE 7 11 30.10 1019 10 16 0.00 0.00
8:53 pm 20:53 Clear 65 18.3 43 6.1 45 45 ESE 3 6 30.10 1019 10 16 0.00 0.00
9:53 pm 21:53 Clear 64 17.8 44 6.7 48 48 VRB 3 6 30.10 1019 10 16 0.00 0.00
10:53 pm 22:53 Clear 63 17.2 47 8.3 56 56 SE 7 11 30.08 1019 10 16 0.00 0.00
11:53 pm 23:53 Clear 63 17.2 49 9.4 60 60 SE 6 9 30.06 1018 10 16 0.00 0.00

Powered by AerisWeather